Weather History for KSDY - October, 2013

Change the Weather History Date:

Tuesday, October 1, 2013

  Actual Average Record
Temperature  
Mean Temperature 52 °F -  
Max Temperature 66 °F 69 °F 92 °F (1953)
Min Temperature 37 °F 38 °F 20 °F (1985)
Degree Days  
Heating Degree Days 14    
Growing Degree Days 2 (Base 50)    
Moisture  
Dew Point 30 °F    
Average Humidity 47    
Maximum Humidity 76    
Minimum Humidity 23    
Precipitation  
Precipitation 0.00 in - - ()
Sea Level Pressure  
Sea Level Pressure 29.83 in    
Wind  
Wind Speed 11 mph (WSW)    
Max Wind Speed 21 mph    
Max Gust Speed 31 mph    
Visibility 10 miles    
Events      
Averages and records for this station are not official NWS values.
T = Trace of Precipitation, MM = Missing Value Source: NWS Daily Summary

Daily Weather History Graph

Daily Weather History Graph

Search for Another Location

Airport or City:

Trip Planner

Search our weather history database for the weather conditions in past years. The results will help you decide how hot, cold, wet, or windy it might be!

Date:

Astronomy

Oct. 01, 2013 Rise Set
Actual Time 6:56 AM MDT 6:35 PM MDT
Civil Twilight 6:25 AM MDT 7:06 PM MDT
Nautical Twilight 5:49 AM MDT 7:41 PM MDT
Astronomical Twilight 5:13 AM MDT 8:18 PM MDT
Moon 3:20 AM MDT (10/1) 4:50 PM MDT (10/1)
Length of Visible Light 12h 40m
Length of Day
11h 39m
Waning Crescent, 11% of the Moon is Illuminated
Oct 1
Waning Crescent
Oct 4
New
Oct 11
First Quarter
Oct 18
Full
Oct 26
Last Quarter

Hourly Weather History & Observations

Time (MDT) Temp. Windchill Dew Point Humidity Pressure Visibility Wind Dir Wind Speed Gust Speed Precip Events Conditions
12:15 AM 42.8 °F 38.0 °F 35.6 °F 76% 29.69 in 10.0 mi SW 8.1 mph - N/A   Clear
12:35 AM 48.2 °F - 33.8 °F 58% 29.69 in 10.0 mi SW 11.5 mph - N/A   Clear
12:55 AM 42.8 °F 38.6 °F 32.0 °F 66% 29.71 in 10.0 mi SSW 6.9 mph - N/A   Clear
1:15 AM 42.8 °F 37.0 °F 33.8 °F 70% 29.71 in 10.0 mi SW 10.4 mph - N/A   Clear
1:35 AM 48.2 °F - 32.0 °F 54% 29.72 in 10.0 mi WSW 11.5 mph - N/A   Clear
1:55 AM 50.0 °F - 32.0 °F 50% 29.72 in 10.0 mi West 13.8 mph - N/A   Clear
2:15 AM 48.2 °F - 30.2 °F 50% 29.73 in 10.0 mi West 9.2 mph - N/A   Clear
2:35 AM 48.2 °F - 30.2 °F 50% 29.73 in 10.0 mi West 13.8 mph - N/A   Clear
2:55 AM 48.2 °F - 30.2 °F 50% 29.74 in 10.0 mi WSW 12.7 mph - N/A   Clear
3:15 AM 46.4 °F 41.1 °F 30.2 °F 53% 29.75 in 10.0 mi WSW 11.5 mph - N/A   Clear
3:55 AM 44.6 °F 39.2 °F 30.2 °F 57% 29.77 in 10.0 mi SW 10.4 mph - N/A   Clear
4:15 AM 44.6 °F 39.2 °F 30.2 °F 57% 29.77 in 10.0 mi SW 10.4 mph - N/A   Clear
4:35 AM 44.6 °F 39.2 °F 30.2 °F 57% 29.77 in 10.0 mi WSW 10.4 mph - N/A   Clear
4:55 AM 44.6 °F 39.2 °F 30.2 °F 57% 29.78 in 10.0 mi WSW 10.4 mph - N/A   Clear
5:15 AM 44.6 °F 38.8 °F 30.2 °F 57% 29.78 in 10.0 mi SW 11.5 mph - N/A   Clear
5:35 AM 44.6 °F 39.2 °F 30.2 °F 57% 29.79 in 10.0 mi SW 10.4 mph - N/A   Clear
5:55 AM 42.8 °F 37.0 °F 30.2 °F 61% 29.80 in 10.0 mi SW 10.4 mph - N/A   Clear
6:15 AM 42.8 °F 36.6 °F 30.2 °F 61% 29.81 in 10.0 mi SW 11.5 mph - N/A   Clear
7:15 AM 37.4 °F 29.3 °F 30.2 °F 75% 29.82 in 10.0 mi SSW 12.7 mph - N/A   Clear
7:35 AM 39.2 °F 32.0 °F 30.2 °F 70% 29.83 in 10.0 mi SSW 11.5 mph - N/A   Clear
7:55 AM 41.0 °F 35.8 °F 32.0 °F 70% 29.83 in 10.0 mi SSW 8.1 mph - N/A   Clear
8:15 AM 44.6 °F 40.2 °F 33.8 °F 66% 29.84 in 10.0 mi SSW 8.1 mph - N/A   Clear
8:35 AM 46.4 °F 40.7 °F 35.6 °F 66% 29.84 in 10.0 mi SW 12.7 mph - N/A   Clear
8:55 AM 53.6 °F - 33.8 °F 47% 29.85 in 10.0 mi WSW 15.0 mph 19.6 mph N/A   Clear
9:15 AM 55.4 °F - 33.8 °F 44% 29.86 in 10.0 mi WSW 18.4 mph 24.2 mph N/A   Clear
9:35 AM 57.2 °F - 33.8 °F 41% 29.86 in 10.0 mi WSW 17.3 mph 26.5 mph N/A   Clear
9:55 AM 57.2 °F - 33.8 °F 41% 29.87 in 10.0 mi West 18.4 mph 26.5 mph N/A   Clear
10:35 AM 59.0 °F - 33.8 °F 39% 29.87 in 10.0 mi West 17.3 mph 28.8 mph N/A   Clear
10:55 AM 60.8 °F - 33.8 °F 36% 29.87 in 10.0 mi WNW 20.7 mph 28.8 mph N/A   Clear
11:15 AM 60.8 °F - 32.0 °F 34% 29.87 in 10.0 mi West 20.7 mph 31.1 mph N/A   Clear
11:35 AM 62.6 °F - 32.0 °F 32% 29.87 in 10.0 mi West 20.7 mph 25.3 mph N/A   Clear
11:55 AM 62.6 °F - 33.8 °F 34% 29.87 in 10.0 mi West 18.4 mph 26.5 mph N/A   Clear
12:15 PM 62.6 °F - 33.8 °F 34% 29.86 in 10.0 mi WNW 19.6 mph 26.5 mph N/A   Clear
12:35 PM 64.4 °F - 33.8 °F 32% 29.86 in 10.0 mi West 17.3 mph 25.3 mph N/A   Clear
1:15 PM 64.4 °F - 30.2 °F 28% 29.87 in 10.0 mi West 19.6 mph 26.5 mph N/A   Clear
1:35 PM 64.4 °F - 30.2 °F 28% 29.86 in 10.0 mi West 17.3 mph 21.9 mph N/A   Partly Cloudy
2:15 PM 66.2 °F - 30.2 °F 26% 29.86 in 10.0 mi West 11.5 mph 23.0 mph N/A   Clear
2:35 PM 66.2 °F - 30.2 °F 26% 29.87 in 10.0 mi West 13.8 mph 24.2 mph N/A   Partly Cloudy
3:15 PM 66.2 °F - 28.4 °F 24% 29.86 in 10.0 mi WSW 11.5 mph 21.9 mph N/A   Clear
3:35 PM 66.2 °F - 26.6 °F 23% 29.86 in 10.0 mi WSW 17.3 mph 25.3 mph N/A   Clear
3:55 PM 66.2 °F - 28.4 °F 24% 29.86 in 10.0 mi WSW 17.3 mph 21.9 mph N/A   Clear
4:35 PM 66.2 °F - 26.6 °F 23% 29.86 in 10.0 mi West 13.8 mph 24.2 mph N/A   Clear
4:55 PM 66.2 °F - 26.6 °F 23% 29.87 in 10.0 mi West 13.8 mph 20.7 mph N/A   Clear
5:15 PM 64.4 °F - 26.6 °F 24% 29.87 in 10.0 mi West 11.5 mph 18.4 mph N/A   Clear
5:35 PM 64.4 °F - 26.6 °F 24% 29.88 in 10.0 mi West 8.1 mph - N/A   Clear
5:55 PM 62.6 °F - 26.6 °F 26% 29.88 in 10.0 mi West 5.8 mph - N/A   Clear
6:15 PM 60.8 °F - 26.6 °F 27% 29.88 in 10.0 mi West 5.8 mph - N/A   Clear
6:36 PM 53.6 °F - 26.6 °F 35% 29.88 in 10.0 mi West 5.8 mph - N/A   Clear
7:15 PM 46.4 °F - 28.4 °F 50% 29.88 in 10.0 mi Calm Calm - N/A   Clear
7:35 PM 46.4 °F - 28.4 °F 50% 29.88 in 10.0 mi Calm Calm - N/A   Clear
8:35 PM 46.4 °F 44.3 °F 30.2 °F 53% 29.89 in 10.0 mi SSW 4.6 mph - N/A   Partly Cloudy
8:55 PM 44.6 °F 41.4 °F 28.4 °F 53% 29.89 in 10.0 mi SW 5.8 mph - N/A   Clear
9:15 PM 46.4 °F 45.2 °F 28.4 °F 50% 29.90 in 10.0 mi West 3.5 mph - N/A   Clear
9:55 PM 42.8 °F - 28.4 °F 57% 29.91 in 10.0 mi Calm Calm - N/A   Clear
10:15 PM 41.0 °F 37.1 °F 28.4 °F 61% 29.91 in 10.0 mi South 5.8 mph - N/A   Clear
10:55 PM 39.2 °F - 28.4 °F 65% 29.92 in 10.0 mi Calm Calm - N/A   Clear
11:15 PM 39.2 °F - 28.4 °F 65% 29.92 in 10.0 mi Calm Calm - N/A   Clear
11:35 PM 37.4 °F - 26.6 °F 65% 29.92 in 10.0 mi Calm Calm - N/A   Clear
11:55 PM 37.4 °F - 28.4 °F 70% 29.91 in 10.0 mi Calm Calm - N/A   Clear